N108MW KSAN-

Flight info

Callsign N108MW
Flight time N/A
Altitude 2500
Route VFR DEP WEST
Aircraft H500/L-VGD/C

Departure

Time 2026-04-21 02:01
Airport San Diego International Airport (KSAN)

Arrival

Time N/A
Airport -
Time Latitude Longitude Altitude Speed Heading
2026-04-21 01:55 32.72625 -117.18143 14 ft 0 kts 290°
2026-04-21 01:57 32.72625 -117.18142 16 ft 0 kts 287°
2026-04-21 01:58 32.72617 -117.18210 85 ft 31 kts 259°
2026-04-21 01:58 32.72586 -117.18604 115 ft 60 kts 263°
2026-04-21 01:58 32.72532 -117.19143 167 ft 67 kts 260°
2026-04-21 01:58 32.72425 -117.19727 234 ft 76 kts 259°
2026-04-21 01:59 32.72327 -117.20335 356 ft 74 kts 261°
2026-04-21 01:59 32.72232 -117.20991 346 ft 90 kts 261°
2026-04-21 01:59 32.72269 -117.21737 448 ft 95 kts 295°
2026-04-21 01:59 32.72834 -117.22236 437 ft 103 kts 323°
2026-04-21 02:00 32.73404 -117.22696 453 ft 98 kts 320°
2026-04-21 02:00 32.73974 -117.23165 413 ft 99 kts 323°
2026-04-21 02:00 32.74558 -117.23609 358 ft 102 kts 322°
2026-04-21 02:00 32.75159 -117.24049 406 ft 100 kts 325°
2026-04-21 02:01 32.75772 -117.24405 428 ft 97 kts 331°
2026-04-21 02:01 32.76383 -117.24718 519 ft 94 kts 333°
2026-04-21 02:01 32.77007 -117.25004 733 ft 97 kts 335°
2026-04-21 02:01 32.77658 -117.25289 897 ft 102 kts 337°
2026-04-21 02:02 32.78330 -117.25514 1059 ft 103 kts 343°
2026-04-21 02:02 32.79006 -117.25707 1283 ft 96 kts 343°
2026-04-21 02:02 32.79654 -117.25886 1512 ft 94 kts 342°
2026-04-21 02:02 32.80300 -117.26023 1746 ft 95 kts 350°
2026-04-21 02:03 32.80965 -117.26079 1960 ft 97 kts 354°
2026-04-21 02:03 32.81651 -117.26131 2157 ft 99 kts 354°
2026-04-21 02:03 32.82351 -117.26205 2281 ft 103 kts 352°
2026-04-21 02:03 32.83053 -117.26201 2469 ft 102 kts
2026-04-21 02:04 32.83792 -117.26095 2513 ft 111 kts
2026-04-21 02:04 32.84574 -117.25977 2518 ft 116 kts
2026-04-21 02:04 32.85385 -117.25911 2533 ft 117 kts
2026-04-21 02:04 32.86195 -117.25856 2567 ft 116 kts
2026-04-21 02:05 32.86999 -117.25776 2595 ft 115 kts
2026-04-21 02:05 32.87808 -117.25755 2548 ft 119 kts 357°
2026-04-21 02:05 32.88624 -117.25805 2535 ft 116 kts 355°
2026-04-21 02:05 32.89443 -117.25885 2469 ft 120 kts 351°
2026-04-21 02:06 32.90267 -117.26000 2430 ft 119 kts 352°
2026-04-21 02:06 32.91086 -117.26103 2413 ft 118 kts 350°
2026-04-21 02:06 32.91883 -117.26221 2454 ft 113 kts 350°
2026-04-21 02:06 32.92651 -117.26364 2509 ft 111 kts 350°
2026-04-21 02:07 32.93424 -117.26490 2519 ft 115 kts 349°
2026-04-21 02:07 32.94223 -117.26660 2474 ft 116 kts 347°
2026-04-21 02:07 32.95003 -117.26839 2490 ft 115 kts 347°
2026-04-21 02:07 32.95800 -117.26993 2467 ft 117 kts 349°
2026-04-21 02:08 32.96607 -117.27165 2431 ft 119 kts 346°
2026-04-21 02:08 32.97406 -117.27365 2452 ft 115 kts 346°
2026-04-21 02:08 32.98170 -117.27584 2495 ft 112 kts 345°
2026-04-21 02:08 32.98950 -117.27799 2441 ft 117 kts 341°
2026-04-21 02:09 32.99715 -117.28102 2451 ft 115 kts 340°
2026-04-21 02:09 33.00484 -117.28368 2447 ft 115 kts 342°
2026-04-21 02:09 33.01255 -117.28631 2453 ft 115 kts 340°
2026-04-21 02:09 33.02016 -117.28886 2494 ft 113 kts 345°
2026-04-21 02:10 33.02777 -117.29129 2470 ft 116 kts 328°
2026-04-21 02:10 33.03439 -117.29646 2524 ft 112 kts 332°
2026-04-21 02:10 33.04110 -117.30154 2483 ft 115 kts 326°
2026-04-21 02:10 33.04790 -117.30620 2529 ft 111 kts 332°
2026-04-21 02:11 33.05499 -117.30990 2562 ft 111 kts 336°
2026-04-21 02:11 33.06205 -117.31357 2596 ft 112 kts 334°
2026-04-21 02:11 33.06951 -117.31755 2490 ft 120 kts 333°
2026-04-21 02:11 33.07700 -117.32145 2495 ft 117 kts 336°
2026-04-21 02:12 33.08430 -117.32599 2441 ft 118 kts 324°
2026-04-21 02:12 33.09120 -117.33088 2496 ft 113 kts 327°
2026-04-21 02:12 33.09854 -117.33468 2448 ft 119 kts 339°
2026-04-21 02:12 33.10601 -117.33885 2404 ft 119 kts 321°
2026-04-21 02:13 33.11265 -117.34431 2448 ft 115 kts 328°
2026-04-21 02:13 33.11958 -117.34892 2474 ft 114 kts 330°
2026-04-21 02:13 33.12675 -117.35300 2499 ft 114 kts 334°
2026-04-21 02:13 33.13393 -117.35695 2518 ft 115 kts 333°
2026-04-21 02:14 33.14064 -117.36225 2515 ft 115 kts 321°
2026-04-21 02:14 33.14673 -117.36864 2489 ft 116 kts 317°
2026-04-21 02:14 33.15284 -117.37505 2466 ft 117 kts 319°
2026-04-21 02:14 33.15918 -117.38116 2417 ft 119 kts 320°
2026-04-21 02:15 33.16594 -117.38688 2393 ft 118 kts 323°
2026-04-21 02:15 33.17265 -117.39183 2429 ft 115 kts 329°
2026-04-21 02:15 33.17928 -117.39689 2472 ft 114 kts 326°
2026-04-21 02:15 33.18592 -117.40241 2393 ft 119 kts 321°
2026-04-21 02:16 33.19243 -117.40832 2409 ft 114 kts 322°
2026-04-21 02:16 33.19878 -117.41392 2422 ft 115 kts 320°
2026-04-21 02:16 33.20505 -117.41992 2421 ft 115 kts 323°
2026-04-21 02:16 33.21166 -117.42495 2484 ft 112 kts 329°
2026-04-21 02:17 33.21844 -117.42977 2497 ft 113 kts 327°
2026-04-21 02:17 33.22505 -117.43496 2504 ft 115 kts 326°
2026-04-21 02:17 33.23187 -117.44010 2479 ft 117 kts 326°
2026-04-21 02:17 33.23854 -117.44588 2429 ft 119 kts 321°
2026-04-21 02:18 33.24496 -117.45208 2363 ft 122 kts 320°
2026-04-21 02:18 33.25170 -117.45792 2387 ft 114 kts 324°
2026-04-21 02:18 33.25833 -117.46309 2429 ft 112 kts 327°
2026-04-21 02:18 33.26488 -117.46817 2460 ft 113 kts 325°
2026-04-21 02:19 33.27149 -117.47323 2491 ft 112 kts 327°
2026-04-21 02:19 33.27723 -117.47928 2531 ft 112 kts 314°
2026-04-21 02:19 33.28279 -117.48592 2553 ft 113 kts 315°
2026-04-21 02:19 33.28869 -117.49255 2494 ft 118 kts 317°
2026-04-21 02:20 33.29505 -117.49886 2460 ft 119 kts 320°
2026-04-21 02:20 33.30095 -117.50572 2429 ft 117 kts 308°
2026-04-21 02:20 33.30578 -117.51331 2477 ft 113 kts 306°
2026-04-21 02:20 33.31043 -117.52094 2477 ft 114 kts 305°
2026-04-21 02:21 33.31541 -117.52834 2529 ft 110 kts 312°
2026-04-21 02:21 33.32094 -117.53505 2459 ft 118 kts 311°
2026-04-21 02:21 33.32623 -117.54240 2456 ft 117 kts 309°
2026-04-21 02:21 33.33141 -117.54990 2459 ft 114 kts 309°
2026-04-21 02:22 33.33641 -117.55719 2483 ft 114 kts 308°
2026-04-21 02:22 33.34160 -117.56418 2531 ft 112 kts 312°
2026-04-21 02:22 33.34698 -117.57101 2515 ft 115 kts 311°
2026-04-21 02:22 33.35211 -117.57858 2475 ft 117 kts 307°
2026-04-21 02:23 33.35734 -117.58595 2465 ft 117 kts 310°
2026-04-21 02:23 33.36266 -117.59309 2492 ft 115 kts 311°
2026-04-21 02:23 33.36819 -117.60110 2202 ft 129 kts 309°
2026-04-21 02:23 33.37374 -117.60855 2332 ft 112 kts 310°
2026-04-21 02:24 33.37871 -117.61530 2458 ft 107 kts 312°
2026-04-21 02:24 33.38398 -117.62208 2444 ft 113 kts 312°
2026-04-21 02:24 33.38953 -117.62879 2423 ft 117 kts 315°
2026-04-21 02:24 33.39528 -117.63570 2399 ft 116 kts 311°
2026-04-21 02:25 33.40020 -117.64317 2440 ft 113 kts 303°
2026-04-21 02:25 33.40407 -117.65154 2424 ft 115 kts 292°
2026-04-21 02:25 33.40658 -117.66067 2410 ft 116 kts 290°
2026-04-21 02:25 33.40941 -117.66975 2411 ft 114 kts 289°
2026-04-21 02:26 33.41226 -117.67838 2463 ft 113 kts 292°
2026-04-21 02:26 33.41569 -117.68688 2492 ft 112 kts 295°
2026-04-21 02:26 33.41851 -117.69554 2521 ft 112 kts 291°
2026-04-21 02:26 33.42162 -117.70408 2540 ft 114 kts 293°
2026-04-21 02:27 33.42500 -117.71279 2518 ft 116 kts 295°
2026-04-21 02:27 33.42853 -117.72141 2518 ft 116 kts 297°
2026-04-21 02:27 33.43267 -117.73013 2382 ft 122 kts 298°
2026-04-21 02:27 33.43706 -117.73843 2403 ft 117 kts 300°
2026-04-21 02:28 33.44044 -117.74731 2404 ft 114 kts 293°
2026-04-21 02:28 33.44371 -117.75587 2416 ft 116 kts 293°
2026-04-21 02:28 33.44688 -117.76495 2344 ft 120 kts 291°
2026-04-21 02:28 33.45002 -117.77394 2368 ft 114 kts 293°
2026-04-21 02:29 33.45334 -117.78258 2403 ft 114 kts 297°
2026-04-21 02:29 33.45713 -117.79102 2411 ft 116 kts 294°
2026-04-21 02:29 33.45941 -117.80018 2442 ft 115 kts 285°
2026-04-21 02:29 33.46191 -117.80930 2460 ft 116 kts 286°
2026-04-21 02:30 33.46430 -117.81839 2525 ft 112 kts 290°
2026-04-21 02:30 33.46728 -117.82720 2490 ft 119 kts 292°
2026-04-21 02:30 33.47060 -117.83624 2524 ft 114 kts 294°
2026-04-21 02:30 33.47431 -117.84491 2485 ft 120 kts 296°
2026-04-21 02:31 33.47845 -117.85396 2367 ft 124 kts 299°
2026-04-21 02:31 33.48265 -117.86282 2332 ft 123 kts 297°
2026-04-21 02:31 33.48676 -117.87153 2364 ft 116 kts 298°
2026-04-21 02:31 33.49064 -117.87986 2399 ft 116 kts 301°
2026-04-21 02:32 33.49341 -117.88568 2305 ft 120 kts 288°
2026-04-21 02:32 33.49657 -117.89443 2396 ft 114 kts 295°
2026-04-21 02:32 33.49979 -117.90303 2429 ft 115 kts 291°
2026-04-21 02:32 33.50226 -117.91206 2450 ft 114 kts 285°
2026-04-21 02:33 33.50474 -117.92098 2570 ft 107 kts 292°
2026-04-21 02:33 33.50846 -117.92926 2506 ft 119 kts 301°
2026-04-21 02:33 33.51293 -117.93775 2470 ft 119 kts 295°
2026-04-21 02:33 33.51596 -117.94670 2556 ft 112 kts 296°
2026-04-21 02:34 33.51822 -117.95606 2488 ft 118 kts 276°
2026-04-21 02:34 33.51995 -117.96566 2456 ft 120 kts 287°
2026-04-21 02:34 33.52291 -117.97502 2420 ft 121 kts 292°
2026-04-21 02:34 33.52661 -117.98410 2367 ft 122 kts 299°
2026-04-21 02:35 33.53170 -117.99241 2277 ft 123 kts 304°
2026-04-21 02:35 33.53638 -118.00055 2330 ft 117 kts 304°
2026-04-21 02:35 33.54143 -118.00782 2410 ft 114 kts 313°
2026-04-21 02:35 33.54736 -118.01409 2421 ft 116 kts 320°
2026-04-21 02:36 33.55356 -118.02021 2435 ft 118 kts 318°
2026-04-21 02:36 33.55944 -118.02704 2436 ft 117 kts 315°
2026-04-21 02:36 33.56527 -118.03376 2477 ft 116 kts 313°
2026-04-21 02:36 33.57127 -118.04010 2505 ft 115 kts 324°
2026-04-21 02:37 33.57842 -118.04445 2506 ft 118 kts 339°
2026-04-21 02:37 33.58629 -118.04739 2527 ft 117 kts 341°
2026-04-21 02:37 33.59399 -118.05037 2549 ft 117 kts 344°
2026-04-21 02:37 33.60198 -118.05274 2498 ft 122 kts 344°
2026-04-21 02:38 33.60962 -118.05748 2430 ft 122 kts 329°
2026-04-21 02:38 33.61724 -118.06129 2491 ft 118 kts 342°
2026-04-21 02:38 33.62555 -118.06356 2390 ft 126 kts 336°
2026-04-21 02:38 33.62925 -118.07271 2015 ft 121 kts 283°
2026-04-21 02:39 33.63237 -118.08116 2157 ft 106 kts 300°
2026-04-21 02:39 33.63773 -118.08776 2040 ft 120 kts 319°
2026-04-21 02:39 33.64269 -118.09482 2173 ft 103 kts 305°
2026-04-21 02:39 33.64665 -118.10214 2218 ft 105 kts 293°
2026-04-21 02:40 33.64988 -118.10945 2422 ft 96 kts 310°
2026-04-21 02:40 33.65395 -118.11602 2518 ft 100 kts 301°
2026-04-21 02:40 33.65800 -118.12319 2531 ft 108 kts 301°
2026-04-21 02:40 33.66205 -118.13068 2614 ft 108 kts 303°
2026-04-21 02:41 33.66709 -118.13797 2537 ft 115 kts 304°
2026-04-21 02:41 33.67179 -118.14537 2581 ft 114 kts 303°
2026-04-21 02:41 33.67637 -118.15317 2597 ft 113 kts 306°
2026-04-21 02:41 33.68123 -118.16081 2571 ft 114 kts 304°
2026-04-21 02:42 33.68593 -118.16845 2613 ft 111 kts 303°
2026-04-21 02:42 33.69055 -118.17578 2612 ft 115 kts 301°
2026-04-21 02:42 33.69481 -118.18407 2531 ft 118 kts 295°
2026-04-21 02:42 33.69839 -118.19265 2579 ft 113 kts 294°
2026-04-21 02:43 33.70154 -118.20137 2586 ft 112 kts 291°
2026-04-21 02:43 33.70537 -118.20968 2517 ft 117 kts 297°
2026-04-21 02:43 33.70904 -118.21852 2443 ft 118 kts 293°
2026-04-21 02:43 33.71242 -118.22736 2426 ft 113 kts 292°
2026-04-21 02:44 33.71622 -118.23552 2432 ft 113 kts 296°
2026-04-21 02:44 33.71992 -118.24362 2477 ft 110 kts 297°
2026-04-21 02:44 33.72385 -118.25153 2472 ft 114 kts 297°
2026-04-21 02:44 33.72677 -118.26088 2352 ft 119 kts 285°
2026-04-21 02:45 33.72974 -118.26965 2394 ft 111 kts 295°
2026-04-21 02:45 33.73342 -118.27746 2473 ft 107 kts 295°
2026-04-21 02:45 33.73719 -118.28511 2578 ft 106 kts 300°
2026-04-21 02:45 33.74133 -118.29234 2695 ft 106 kts 304°
2026-04-21 02:46 33.74600 -118.29962 2674 ft 113 kts 303°
2026-04-21 02:46 33.75069 -118.30758 2566 ft 121 kts 303°
2026-04-21 02:46 33.75598 -118.31558 2478 ft 122 kts 313°
2026-04-21 02:46 33.76325 -118.32046 2457 ft 121 kts 341°
2026-04-21 02:47 33.77132 -118.32340 2440 ft 118 kts 335°
2026-04-21 02:47 33.77897 -118.32684 2464 ft 115 kts 341°
2026-04-21 02:47 33.78658 -118.32930 2541 ft 112 kts 339°
2026-04-21 02:47 33.79402 -118.33284 2524 ft 118 kts 333°
2026-04-21 02:48 33.80151 -118.33656 2575 ft 116 kts 335°
2026-04-21 02:48 33.80886 -118.34052 2630 ft 114 kts 333°
2026-04-21 02:48 33.81616 -118.34446 2647 ft 118 kts 334°
2026-04-21 02:48 33.82362 -118.34896 2594 ft 122 kts 329°
2026-04-21 02:49 33.83125 -118.35361 2540 ft 124 kts 334°
2026-04-21 02:49 33.83977 -118.35726 2288 ft 134 kts 339°
2026-04-21 02:49 33.84799 -118.36143 2314 ft 120 kts 332°
2026-04-21 02:49 33.85524 -118.36600 2320 ft 119 kts 328°
2026-04-21 02:50 33.86243 -118.37115 2263 ft 119 kts 325°
2026-04-21 02:50 33.87008 -118.37529 2165 ft 121 kts 330°
2026-04-21 02:50 33.87745 -118.37886 2219 ft 100 kts 327°
2026-04-21 02:50 33.88215 -118.38195 2078 ft 62 kts 322°
2026-04-21 02:51 33.88565 -118.38425 1856 ft 55 kts 325°
2026-04-21 02:51 33.88895 -118.38657 1622 ft 56 kts 320°
2026-04-21 02:51 33.89303 -118.38958 1116 ft 77 kts 319°
2026-04-21 02:51 33.89767 -118.39242 792 ft 73 kts 331°
2026-04-21 02:52 33.90221 -118.39420 525 ft 58 kts 332°
2026-04-21 02:52 33.90536 -118.39556 453 ft 46 kts 331°
2026-04-21 02:52 33.90858 -118.39721 482 ft 50 kts 326°
2026-04-21 02:52 33.91194 -118.39922 502 ft 58 kts 323°
2026-04-21 02:53 33.91569 -118.40137 506 ft 61 kts 319°
2026-04-21 02:53 33.91919 -118.40395 483 ft 56 kts 320°
2026-04-21 02:53 33.92240 -118.40506 428 ft 37 kts 11°
2026-04-21 02:53 33.92550 -118.40410 359 ft 50 kts 349°
2026-04-21 02:54 33.92872 -118.40366 323 ft 42 kts
2026-04-21 02:54 33.93108 -118.40312 233 ft 29 kts
2026-04-21 02:54 33.93240 -118.40316 183 ft 16 kts 352°
2026-04-21 02:54 33.93299 -118.40345 117 ft 5 kts 267°
2026-04-21 02:55 33.93300 -118.40367 89 ft 1 kts 267°